| time (UTC) | temp F | wind direction | speed MPH | gust MPH | rain 1hr in | rain 24hr in | rain mn in | humidity % | barometer mb |
| 20260902003025 | 72 | 246 | 1.0 | 3.0 | 0.00 | 0.00 | 0.00 | 50 | 1009.2 |
| 20260902002604 | 72 | 246 | 1.0 | 3.0 | 0.00 | 0.00 | 0.00 | 50 | 1009.2 |
| 20260902002103 | 72 | 242 | 0.0 | 2.0 | 0.00 | 0.00 | 0.00 | 49 | 1009.1 |
| 20260902002022 | 72 | 257 | 1.0 | 3.0 | 0.00 | 0.00 | 0.00 | 49 | 1009.1 |
| 20260902001104 | 72 | 262 | 0.0 | 1.0 | 0.00 | 0.00 | 0.00 | 49 | 1009.1 |
| 20260902000604 | 72 | 275 | 0.0 | 3.0 | 0.00 | 0.00 | 0.00 | 50 | 1009.0 |
| 20260902000103 | 72 | 232 | 0.0 | 3.0 | 0.00 | 0.00 | 0.00 | 50 | 1009.0 |
| 20260902000024 | 72 | 251 | 0.0 | 0.0 | 0.00 | 0.00 | 0.00 | 50 | 1008.9 |
| 20260901235604 | 72 | 251 | 0.0 | 0.0 | 0.00 | 0.00 | 0.00 | 50 | 1008.9 |
| 20260901235023 | 72 | 9 | 0.0 | 5.0 | 0.00 | 0.00 | 0.00 | 48 | 1008.7 |
| 20260901234604 | 72 | 9 | 0.0 | 5.0 | 0.00 | 0.00 | 0.00 | 48 | 1008.7 |
| 20260901234104 | 73 | 298 | 0.0 | 3.0 | 0.00 | 0.00 | 0.00 | 49 | 1008.8 |
| 20260901234022 | 73 | 273 | 0.0 | 2.0 | 0.00 | 0.00 | 0.00 | 49 | 1008.7 |
| 20260901233603 | 73 | 273 | 0.0 | 2.0 | 0.00 | 0.00 | 0.00 | 49 | 1008.7 |
| 20260901233104 | 73 | 276 | 0.0 | 2.0 | 0.00 | 0.00 | 0.00 | 49 | 1008.8 |
| 20260901233024 | 73 | 211 | 0.0 | 3.0 | 0.00 | 0.00 | 0.00 | 49 | 1008.8 |
| 20260901232604 | 73 | 211 | 0.0 | 3.0 | 0.00 | 0.00 | 0.00 | 49 | 1008.8 |
| 20260901232104 | 73 | 238 | 0.0 | 3.0 | 0.00 | 0.00 | 0.00 | 49 | 1008.9 |
| 20260901232022 | 73 | 259 | 1.0 | 5.0 | 0.00 | 0.00 | 0.00 | 49 | 1008.8 |
| 20260901231104 | 73 | 297 | 0.0 | 3.0 | 0.00 | 0.00 | 0.00 | 49 | 1008.9 |
| 20260901231022 | 72 | 256 | 0.0 | 1.0 | 0.00 | 0.00 | 0.00 | 49 | 1008.8 |
| 20260901230024 | 72 | 296 | 0.0 | 3.0 | 0.00 | 0.00 | 0.00 | 49 | 1008.9 |
| 20260901225604 | 72 | 296 | 0.0 | 3.0 | 0.00 | 0.00 | 0.00 | 49 | 1008.9 |
| 20260901225023 | 73 | 218 | 0.0 | 3.0 | 0.00 | 0.00 | 0.00 | 48 | 1008.8 |
| 20260901224603 | 73 | 218 | 0.0 | 3.0 | 0.00 | 0.00 | 0.00 | 48 | 1008.8 |
| 20260901224023 | 73 | 290 | 0.0 | 2.0 | 0.00 | 0.00 | 0.00 | 47 | 1008.7 |
| 20260901223025 | 74 | 290 | 1.0 | 6.0 | 0.00 | 0.00 | 0.00 | 46 | 1008.8 |
| 20260901222103 | 74 | 331 | 1.0 | 6.0 | 0.00 | 0.00 | 0.00 | 46 | 1008.8 |
| 20260901222022 | 74 | 312 | 2.0 | 5.0 | 0.00 | 0.00 | 0.00 | 46 | 1008.7 |
| 20260901221604 | 74 | 312 | 2.0 | 5.0 | 0.00 | 0.00 | 0.00 | 46 | 1008.7 |
| 20260901221104 | 75 | 0 | 1.0 | 5.0 | 0.00 | 0.00 | 0.00 | 46 | 1008.8 |
| 20260901221022 | 75 | 350 | 5.0 | 10.0 | 0.00 | 0.00 | 0.00 | 45 | 1008.7 |
| 20260901220604 | 75 | 350 | 5.0 | 10.0 | 0.00 | 0.00 | 0.00 | 45 | 1008.7 |
| 20260901215604 | 75 | 351 | 2.0 | 6.0 | 0.00 | 0.00 | 0.00 | 44 | 1008.7 |
| 20260901215104 | 75 | 358 | 0.0 | 8.0 | 0.00 | 0.00 | 0.00 | 45 | 1008.8 |
| 20260901215022 | 75 | 334 | 1.0 | 6.0 | 0.00 | 0.00 | 0.00 | 45 | 1008.8 |
| 20260901214604 | 75 | 334 | 1.0 | 6.0 | 0.00 | 0.00 | 0.00 | 45 | 1008.8 |
| 20260901214104 | 75 | 350 | 1.0 | 7.0 | 0.00 | 0.00 | 0.00 | 45 | 1008.6 |
| 20260901214023 | 75 | 2 | 5.0 | 12.0 | 0.00 | 0.00 | 0.00 | 44 | 1008.7 |
| 20260901213603 | 75 | 2 | 5.0 | 12.0 | 0.00 | 0.00 | 0.00 | 44 | 1008.7 |
| 20260901213104 | 75 | 342 | 2.0 | 8.0 | 0.00 | 0.00 | 0.00 | 45 | 1008.8 |
| 20260901213025 | 75 | 333 | 2.0 | 8.0 | 0.00 | 0.00 | 0.00 | 45 | 1008.7 |
| 20260901212603 | 75 | 333 | 2.0 | 8.0 | 0.00 | 0.00 | 0.00 | 45 | 1008.7 |
| 20260901212104 | 75 | 341 | 1.0 | 10.0 | 0.00 | 0.00 | 0.00 | 45 | 1008.7 |
| 20260901212022 | 75 | 0 | 3.0 | 10.0 | 0.00 | 0.00 | 0.00 | 44 | 1008.8 |
| 20260901211604 | 75 | 0 | 3.0 | 10.0 | 0.00 | 0.00 | 0.00 | 44 | 1008.8 |
| 20260901210604 | 75 | 7 | 1.0 | 3.0 | 0.00 | 0.00 | 0.00 | 46 | 1008.7 |
| 20260901210104 | 75 | 3 | 1.0 | 6.0 | 0.00 | 0.00 | 0.00 | 44 | 1008.7 |
| 20260901210024 | 74 | 23 | 1.0 | 8.0 | 0.00 | 0.00 | 0.00 | 45 | 1008.7 |
| 20260901205604 | 74 | 23 | 1.0 | 8.0 | 0.00 | 0.00 | 0.00 | 45 | 1008.7 |
| 20260901205104 | 74 | 359 | 2.0 | 8.0 | 0.00 | 0.00 | 0.00 | 45 | 1008.8 |
| 20260901205022 | 74 | 303 | 0.0 | 6.0 | 0.00 | 0.00 | 0.00 | 47 | 1008.8 |
| 20260901204604 | 74 | 303 | 0.0 | 6.0 | 0.00 | 0.00 | 0.00 | 47 | 1008.8 |
| 20260901204022 | 74 | 225 | 0.0 | 3.0 | 0.00 | 0.00 | 0.00 | 46 | 1008.8 |
| 20260901203604 | 74 | 225 | 0.0 | 3.0 | 0.00 | 0.00 | 0.00 | 46 | 1008.8 |
| 20260901203024 | 74 | 344 | 2.0 | 9.0 | 0.00 | 0.00 | 0.00 | 46 | 1008.9 |
| 20260901202604 | 74 | 344 | 2.0 | 9.0 | 0.00 | 0.00 | 0.00 | 46 | 1008.9 |
| 20260901202103 | 74 | 332 | 2.0 | 5.0 | 0.00 | 0.00 | 0.00 | 46 | 1008.9 |
| 20260901202021 | 75 | 1 | 2.0 | 9.0 | 0.00 | 0.00 | 0.00 | 44 | 1009.0 |
| 20260901201603 | 75 | 1 | 2.0 | 9.0 | 0.00 | 0.00 | 0.00 | 44 | 1009.0 |
| 20260901201103 | 75 | 355 | 3.0 | 9.0 | 0.00 | 0.00 | 0.00 | 45 | 1009.0 |
| 20260901201022 | 74 | 8 | 1.0 | 7.0 | 0.00 | 0.00 | 0.00 | 46 | 1009.2 |
| 20260901200604 | 74 | 8 | 1.0 | 7.0 | 0.00 | 0.00 | 0.00 | 46 | 1009.2 |
| 20260901195604 | 74 | 5 | 2.0 | 7.0 | 0.00 | 0.00 | 0.00 | 47 | 1009.3 |
| 20260901195104 | 73 | 311 | 2.0 | 7.0 | 0.00 | 0.00 | 0.00 | 45 | 1009.4 |
| 20260901195021 | 73 | 348 | 1.0 | 3.0 | 0.00 | 0.00 | 0.00 | 48 | 1009.5 |
| 20260901194604 | 73 | 348 | 1.0 | 3.0 | 0.00 | 0.00 | 0.00 | 48 | 1009.5 |
| 20260901194104 | 73 | 261 | 0.0 | 5.0 | 0.00 | 0.00 | 0.00 | 48 | 1009.6 |
| 20260901194022 | 74 | 6 | 5.0 | 9.0 | 0.00 | 0.00 | 0.00 | 44 | 1009.5 |
| 20260901193104 | 73 | 8 | 2.0 | 5.0 | 0.00 | 0.00 | 0.00 | 47 | 1009.6 |
| 20260901193024 | 72 | 294 | 0.0 | 1.0 | 0.00 | 0.00 | 0.00 | 47 | 1009.8 |
| 20260901192603 | 72 | 294 | 0.0 | 1.0 | 0.00 | 0.00 | 0.00 | 47 | 1009.8 |
| 20260901192022 | 71 | 359 | 2.0 | 6.0 | 0.00 | 0.00 | 0.00 | 48 | 1009.9 |
| 20260901191604 | 71 | 359 | 2.0 | 6.0 | 0.00 | 0.00 | 0.00 | 48 | 1009.9 |
| 20260901191022 | 71 | 353 | 0.0 | 0.0 | 0.00 | 0.00 | 0.00 | 49 | 1010.1 |
| 20260901190604 | 71 | 353 | 0.0 | 0.0 | 0.00 | 0.00 | 0.00 | 49 | 1010.1 |
| 20260901190104 | 70 | 358 | 0.0 | 2.0 | 0.00 | 0.00 | 0.00 | 49 | 1010.1 |
| 20260901190024 | 70 | 333 | 1.0 | 3.0 | 0.00 | 0.00 | 0.00 | 52 | 1010.2 |
| 20260901185022 | 70 | 290 | 0.0 | 3.0 | 0.00 | 0.00 | 0.00 | 52 | 1010.2 |
| 20260901184104 | 70 | 2 | 0.0 | 3.0 | 0.00 | 0.00 | 0.00 | 51 | 1010.3 |
| 20260901184022 | 68 | 54 | 0.0 | 2.0 | 0.00 | 0.00 | 0.00 | 53 | 1010.3 |
| 20260901183604 | 68 | 54 | 0.0 | 2.0 | 0.00 | 0.00 | 0.00 | 53 | 1010.3 |
| 20260901183104 | 68 | 332 | 0.0 | 5.0 | 0.00 | 0.00 | 0.00 | 53 | 1010.4 |
| 20260901183025 | 69 | 337 | 0.0 | 0.0 | 0.00 | 0.00 | 0.00 | 54 | 1010.5 |
| 20260901182604 | 69 | 337 | 0.0 | 0.0 | 0.00 | 0.00 | 0.00 | 54 | 1010.5 |
| 20260901182103 | 69 | 4 | 0.0 | 0.0 | 0.00 | 0.00 | 0.00 | 52 | 1010.4 |
| 20260901182022 | 68 | 333 | 0.0 | 0.0 | 0.00 | 0.00 | 0.00 | 52 | 1010.4 |
| 20260901181604 | 68 | 333 | 0.0 | 0.0 | 0.00 | 0.00 | 0.00 | 52 | 1010.4 |
| 20260901181104 | 68 | 334 | 0.0 | 0.0 | 0.00 | 0.00 | 0.00 | 52 | 1010.5 |
| 20260901181022 | 67 | 182 | 0.0 | 2.0 | 0.00 | 0.00 | 0.00 | 55 | 1010.5 |
| 20260901180104 | 68 | 116 | 0.0 | 3.0 | 0.00 | 0.00 | 0.00 | 51 | 1010.7 |
| 20260901180024 | 67 | 36 | 0.0 | 2.0 | 0.00 | 0.00 | 0.00 | 54 | 1010.7 |
| 20260901175604 | 67 | 36 | 0.0 | 2.0 | 0.00 | 0.00 | 0.00 | 54 | 1010.7 |
| 20260901175104 | 67 | 32 | 0.0 | 0.0 | 0.00 | 0.00 | 0.00 | 52 | 1010.8 |
| 20260901175023 | 67 | 88 | 0.0 | 2.0 | 0.00 | 0.00 | 0.00 | 54 | 1010.9 |
| 20260901174603 | 67 | 88 | 0.0 | 2.0 | 0.00 | 0.00 | 0.00 | 54 | 1010.9 |
| 20260901174103 | 68 | 37 | 0.0 | 2.0 | 0.00 | 0.00 | 0.00 | 53 | 1010.9 |
| 20260901173604 | 68 | 345 | 0.0 | 0.0 | 0.00 | 0.00 | 0.00 | 53 | 1011.0 |
| 20260901173104 | 68 | 359 | 0.0 | 0.0 | 0.00 | 0.00 | 0.00 | 53 | 1010.9 |
| 20260901172103 | 68 | 69 | 1.0 | 2.0 | 0.00 | 0.00 | 0.00 | 52 | 1010.9 |
| 20260901172022 | 68 | 49 | 0.0 | 0.0 | 0.00 | 0.00 | 0.00 | 53 | 1011.1 |
| 20260901171603 | 68 | 49 | 0.0 | 0.0 | 0.00 | 0.00 | 0.00 | 53 | 1011.1 |
| 20260901171104 | 67 | 39 | 0.0 | 0.0 | 0.00 | 0.00 | 0.00 | 54 | 1011.0 |
| 20260901171022 | 67 | 107 | 0.0 | 0.0 | 0.00 | 0.00 | 0.00 | 53 | 1011.0 |
| 20260901170604 | 67 | 107 | 0.0 | 0.0 | 0.00 | 0.00 | 0.00 | 53 | 1011.0 |
| 20260901170104 | 67 | 60 | 0.0 | 0.0 | 0.00 | 0.00 | 0.00 | 53 | 1011.1 |
| 20260901170024 | 67 | 23 | 0.0 | 0.0 | 0.00 | 0.00 | 0.00 | 53 | 1011.0 |
| 20260901165604 | 67 | 23 | 0.0 | 0.0 | 0.00 | 0.00 | 0.00 | 53 | 1011.0 |
| 20260901165104 | 66 | 9 | 0.0 | 0.0 | 0.00 | 0.00 | 0.00 | 55 | 1011.0 |
| 20260901165022 | 66 | 45 | 0.0 | 0.0 | 0.00 | 0.00 | 0.00 | 55 | 1011.2 |
| 20260901164603 | 66 | 45 | 0.0 | 0.0 | 0.00 | 0.00 | 0.00 | 55 | 1011.2 |
| 20260901164104 | 65 | 43 | 0.0 | 0.0 | 0.00 | 0.00 | 0.00 | 55 | 1011.1 |
| 20260901164023 | 65 | 354 | 0.0 | 0.0 | 0.00 | 0.00 | 0.00 | 55 | 1011.3 |
| 20260901163604 | 65 | 354 | 0.0 | 0.0 | 0.00 | 0.00 | 0.00 | 55 | 1011.3 |
| 20260901163024 | 65 | 69 | 0.0 | 0.0 | 0.00 | 0.00 | 0.00 | 56 | 1011.3 |
| 20260901162604 | 65 | 69 | 0.0 | 0.0 | 0.00 | 0.00 | 0.00 | 56 | 1011.3 |
| 20260901162104 | 64 | 57 | 0.0 | 0.0 | 0.00 | 0.00 | 0.00 | 56 | 1011.3 |
| 20260901162022 | 64 | 56 | 0.0 | 0.0 | 0.00 | 0.00 | 0.00 | 57 | 1011.2 |
| 20260901161604 | 64 | 56 | 0.0 | 0.0 | 0.00 | 0.00 | 0.00 | 57 | 1011.2 |
| 20260901161104 | 64 | 84 | 0.0 | 0.0 | 0.00 | 0.00 | 0.00 | 57 | 1011.3 |
| 20260901160604 | 64 | 92 | 0.0 | 0.0 | 0.00 | 0.00 | 0.00 | 57 | 1011.2 |
| 20260901160103 | 63 | 92 | 0.0 | 0.0 | 0.00 | 0.00 | 0.00 | 57 | 1011.3 |
| 20260901160024 | 63 | 92 | 0.0 | 0.0 | 0.00 | 0.00 | 0.00 | 58 | 1011.3 |
| 20260901155604 | 63 | 92 | 0.0 | 0.0 | 0.00 | 0.00 | 0.00 | 58 | 1011.3 |
| 20260901155104 | 62 | 92 | 0.0 | 0.0 | 0.00 | 0.00 | 0.00 | 59 | 1011.3 |
| 20260901155023 | 61 | 86 | 0.0 | 0.0 | 0.00 | 0.00 | 0.00 | 60 | 1011.2 |
| 20260901154604 | 61 | 86 | 0.0 | 0.0 | 0.00 | 0.00 | 0.00 | 60 | 1011.2 |
| 20260901154104 | 61 | 59 | 0.0 | 0.0 | 0.00 | 0.00 | 0.00 | 61 | 1011.2 |
| 20260901154022 | 60 | 56 | 0.0 | 0.0 | 0.00 | 0.00 | 0.00 | 62 | 1011.2 |
| 20260901153604 | 60 | 56 | 0.0 | 0.0 | 0.00 | 0.00 | 0.00 | 62 | 1011.2 |
| 20260901153104 | 60 | 48 | 0.0 | 0.0 | 0.00 | 0.00 | 0.00 | 63 | 1011.1 |
| 20260901153024 | 59 | 45 | 0.0 | 0.0 | 0.00 | 0.00 | 0.00 | 63 | 1011.1 |
| 20260901152604 | 59 | 45 | 0.0 | 0.0 | 0.00 | 0.00 | 0.00 | 63 | 1011.1 |
| 20260901152103 | 59 | 45 | 0.0 | 0.0 | 0.00 | 0.00 | 0.00 | 65 | 1011.2 |
| 20260901152022 | 58 | 40 | 0.0 | 0.0 | 0.00 | 0.00 | 0.00 | 66 | 1011.1 |
| 20260901151103 | 58 | 36 | 0.0 | 0.0 | 0.00 | 0.00 | 0.00 | 68 | 1011.1 |
| 20260901151022 | 57 | 34 | 0.0 | 0.0 | 0.00 | 0.00 | 0.00 | 68 | 1011.0 |
| 20260901150104 | 56 | 32 | 0.0 | 0.0 | 0.00 | 0.00 | 0.00 | 68 | 1010.9 |
| 20260901150024 | 55 | 32 | 0.0 | 0.0 | 0.00 | 0.00 | 0.00 | 69 | 1010.8 |
| 20260901145604 | 55 | 32 | 0.0 | 0.0 | 0.00 | 0.00 | 0.00 | 69 | 1010.8 |
| 20260901145104 | 54 | 32 | 0.0 | 0.0 | 0.00 | 0.00 | 0.00 | 71 | 1010.8 |
| 20260901144604 | 53 | 32 | 0.0 | 0.0 | 0.00 | 0.00 | 0.00 | 70 | 1010.7 |
| 20260901144104 | 53 | 32 | 0.0 | 0.0 | 0.00 | 0.00 | 0.00 | 71 | 1010.7 |
| 20260901144022 | 52 | 32 | 0.0 | 0.0 | 0.00 | 0.00 | 0.00 | 72 | 1010.6 |
| 20260901143604 | 52 | 32 | 0.0 | 0.0 | 0.00 | 0.00 | 0.00 | 72 | 1010.6 |
| 20260901143104 | 51 | 32 | 0.0 | 0.0 | 0.00 | 0.00 | 0.00 | 72 | 1010.5 |
| 20260901143024 | 51 | 32 | 0.0 | 0.0 | 0.00 | 0.00 | 0.00 | 73 | 1010.6 |
| 20260901142604 | 51 | 32 | 0.0 | 0.0 | 0.00 | 0.00 | 0.00 | 73 | 1010.6 |
| 20260901142022 | 51 | 32 | 0.0 | 0.0 | 0.00 | 0.00 | 0.00 | 73 | 1010.4 |
| 20260901141604 | 51 | 32 | 0.0 | 0.0 | 0.00 | 0.00 | 0.00 | 73 | 1010.4 |
| 20260901141103 | 51 | 32 | 0.0 | 0.0 | 0.00 | 0.00 | 0.00 | 71 | 1010.3 |
| 20260901141022 | 51 | 32 | 0.0 | 0.0 | 0.00 | 0.00 | 0.00 | 72 | 1010.2 |
| 20260901140604 | 51 | 32 | 0.0 | 0.0 | 0.00 | 0.00 | 0.00 | 72 | 1010.2 |
| 20260901140105 | 51 | 32 | 0.0 | 0.0 | 0.00 | 0.00 | 0.00 | 73 | 1010.2 |
| 20260901140024 | 51 | 32 | 0.0 | 0.0 | 0.00 | 0.00 | 0.00 | 72 | 1010.3 |
| 20260901135604 | 51 | 32 | 0.0 | 0.0 | 0.00 | 0.00 | 0.00 | 72 | 1010.3 |
| 20260901135104 | 51 | 32 | 0.0 | 0.0 | 0.00 | 0.00 | 0.00 | 71 | 1010.2 |
| 20260901135022 | 51 | 32 | 0.0 | 0.0 | 0.00 | 0.00 | 0.00 | 71 | 1010.2 |
| 20260901134604 | 51 | 32 | 0.0 | 0.0 | 0.00 | 0.00 | 0.00 | 71 | 1010.2 |
| 20260901134103 | 51 | 32 | 0.0 | 0.0 | 0.00 | 0.00 | 0.00 | 71 | 1010.0 |
| 20260901134023 | 51 | 32 | 0.0 | 0.0 | 0.00 | 0.00 | 0.00 | 71 | 1010.1 |
| 20260901133603 | 51 | 32 | 0.0 | 0.0 | 0.00 | 0.00 | 0.00 | 71 | 1010.1 |
| 20260901132604 | 51 | 32 | 0.0 | 0.0 | 0.00 | 0.00 | 0.00 | 70 | 1009.8 |
| 20260901132103 | 51 | 32 | 0.0 | 0.0 | 0.00 | 0.00 | 0.00 | 69 | 1009.8 |
| 20260901132022 | 52 | 32 | 0.0 | 0.0 | 0.00 | 0.00 | 0.00 | 68 | 1009.8 |
| 20260901131604 | 52 | 32 | 0.0 | 0.0 | 0.00 | 0.00 | 0.00 | 68 | 1009.8 |
| 20260901131103 | 52 | 32 | 0.0 | 0.0 | 0.00 | 0.00 | 0.00 | 68 | 1009.8 |
| 20260901131022 | 52 | 32 | 0.0 | 0.0 | 0.00 | 0.00 | 0.00 | 67 | 1009.7 |
| 20260901130604 | 52 | 32 | 0.0 | 0.0 | 0.00 | 0.00 | 0.00 | 67 | 1009.7 |
| 20260901130104 | 52 | 32 | 0.0 | 0.0 | 0.00 | 0.00 | 0.00 | 66 | 1009.6 |
| 20260901130022 | 52 | 32 | 0.0 | 0.0 | 0.00 | 0.00 | 0.00 | 66 | 1009.7 |
| 20260901125604 | 52 | 32 | 0.0 | 0.0 | 0.00 | 0.00 | 0.00 | 66 | 1009.7 |
| 20260901125104 | 52 | 32 | 0.0 | 0.0 | 0.00 | 0.00 | 0.00 | 66 | 1009.7 |
| 20260901125022 | 52 | 32 | 0.0 | 0.0 | 0.00 | 0.00 | 0.00 | 65 | 1009.7 |
| 20260901124604 | 52 | 32 | 0.0 | 0.0 | 0.00 | 0.00 | 0.00 | 65 | 1009.7 |
| 20260901124104 | 53 | 32 | 0.0 | 0.0 | 0.00 | 0.00 | 0.00 | 65 | 1009.8 |
| 20260901124023 | 53 | 32 | 0.0 | 0.0 | 0.00 | 0.00 | 0.00 | 65 | 1009.7 |
| 20260901123605 | 53 | 32 | 0.0 | 0.0 | 0.00 | 0.00 | 0.00 | 65 | 1009.7 |
| 20260901123104 | 53 | 32 | 0.0 | 0.0 | 0.00 | 0.00 | 0.00 | 64 | 1009.7 |
| 20260901123022 | 53 | 32 | 0.0 | 0.0 | 0.00 | 0.00 | 0.00 | 64 | 1009.6 |
| 20260901122604 | 53 | 32 | 0.0 | 0.0 | 0.00 | 0.00 | 0.00 | 64 | 1009.6 |
| 20260901122104 | 53 | 32 | 0.0 | 0.0 | 0.00 | 0.00 | 0.00 | 64 | 1009.7 |
| 20260901122022 | 53 | 32 | 0.0 | 0.0 | 0.00 | 0.00 | 0.00 | 64 | 1009.6 |
| 20260901121103 | 53 | 32 | 0.0 | 0.0 | 0.00 | 0.00 | 0.00 | 63 | 1009.6 |
| 20260901121022 | 54 | 32 | 0.0 | 0.0 | 0.00 | 0.00 | 0.00 | 64 | 1009.6 |
| 20260901120104 | 54 | 32 | 0.0 | 0.0 | 0.00 | 0.00 | 0.00 | 63 | 1009.6 |
| 20260901120022 | 54 | 32 | 0.0 | 0.0 | 0.00 | 0.00 | 0.00 | 64 | 1009.6 |
| 20260901115104 | 54 | 32 | 0.0 | 0.0 | 0.00 | 0.00 | 0.00 | 63 | 1009.5 |
| 20260901115022 | 54 | 32 | 0.0 | 0.0 | 0.00 | 0.00 | 0.00 | 63 | 1009.6 |
| 20260901114604 | 54 | 32 | 0.0 | 0.0 | 0.00 | 0.00 | 0.00 | 63 | 1009.6 |
| 20260901114103 | 54 | 32 | 0.0 | 0.0 | 0.00 | 0.00 | 0.00 | 63 | 1009.5 |
| 20260901114022 | 54 | 32 | 0.0 | 0.0 | 0.00 | 0.00 | 0.00 | 62 | 1009.4 |
| 20260901113604 | 54 | 32 | 0.0 | 0.0 | 0.00 | 0.00 | 0.00 | 62 | 1009.4 |
| 20260901113103 | 54 | 32 | 0.0 | 0.0 | 0.00 | 0.00 | 0.00 | 62 | 1009.4 |
| 20260901113022 | 54 | 32 | 0.0 | 0.0 | 0.00 | 0.00 | 0.00 | 63 | 1009.4 |
| 20260901112104 | 55 | 32 | 0.0 | 0.0 | 0.00 | 0.00 | 0.00 | 62 | 1009.3 |
| 20260901112022 | 55 | 32 | 0.0 | 0.0 | 0.00 | 0.00 | 0.00 | 62 | 1009.4 |
| 20260901111104 | 55 | 32 | 0.0 | 0.0 | 0.00 | 0.00 | 0.00 | 62 | 1009.3 |
| 20260901111022 | 55 | 32 | 0.0 | 0.0 | 0.00 | 0.00 | 0.00 | 62 | 1009.3 |
| 20260901110604 | 55 | 32 | 0.0 | 0.0 | 0.00 | 0.00 | 0.00 | 62 | 1009.3 |
| 20260901110104 | 55 | 32 | 0.0 | 0.0 | 0.00 | 0.00 | 0.00 | 62 | 1009.2 |
| 20260901105604 | 55 | 32 | 0.0 | 0.0 | 0.00 | 0.00 | 0.00 | 61 | 1009.2 |
| 20260901105104 | 55 | 32 | 0.0 | 0.0 | 0.00 | 0.00 | 0.00 | 60 | 1009.2 |
| 20260901105022 | 55 | 32 | 0.0 | 0.0 | 0.00 | 0.00 | 0.00 | 60 | 1009.2 |
| 20260901104604 | 55 | 32 | 0.0 | 0.0 | 0.00 | 0.00 | 0.00 | 60 | 1009.2 |
| 20260901104104 | 55 | 32 | 0.0 | 0.0 | 0.00 | 0.00 | 0.00 | 61 | 1009.0 |
| 20260901103604 | 55 | 32 | 0.0 | 0.0 | 0.00 | 0.00 | 0.00 | 60 | 1009.1 |
| 20260901103103 | 55 | 32 | 0.0 | 0.0 | 0.00 | 0.00 | 0.00 | 61 | 1009.1 |
| 20260901103022 | 55 | 32 | 0.0 | 0.0 | 0.00 | 0.00 | 0.00 | 61 | 1009.1 |
| 20260901102603 | 55 | 32 | 0.0 | 0.0 | 0.00 | 0.00 | 0.00 | 61 | 1009.1 |
| 20260901102104 | 56 | 32 | 0.0 | 0.0 | 0.00 | 0.00 | 0.00 | 60 | 1009.0 |
| 20260901102021 | 56 | 32 | 0.0 | 0.0 | 0.00 | 0.00 | 0.00 | 60 | 1009.0 |
| 20260901101604 | 56 | 32 | 0.0 | 0.0 | 0.00 | 0.00 | 0.00 | 60 | 1009.0 |
| 20260901101022 | 56 | 32 | 0.0 | 0.0 | 0.00 | 0.00 | 0.00 | 59 | 1009.0 |
| 20260901095104 | 56 | 32 | 0.0 | 0.0 | 0.00 | 0.00 | 0.00 | 58 | 1008.9 |
| 20260901095022 | 56 | 32 | 0.0 | 0.0 | 0.00 | 0.00 | 0.00 | 58 | 1009.0 |
| 20260901094604 | 56 | 32 | 0.0 | 0.0 | 0.00 | 0.00 | 0.00 | 58 | 1009.0 |
| 20260901094103 | 56 | 32 | 0.0 | 0.0 | 0.00 | 0.00 | 0.00 | 58 | 1009.0 |
| 20260901094023 | 57 | 32 | 0.0 | 0.0 | 0.00 | 0.00 | 0.00 | 58 | 1009.0 |
| 20260901093022 | 57 | 32 | 0.0 | 0.0 | 0.00 | 0.00 | 0.00 | 58 | 1009.0 |
| 20260901092604 | 57 | 32 | 0.0 | 0.0 | 0.00 | 0.00 | 0.00 | 58 | 1009.0 |
| 20260901092103 | 57 | 32 | 0.0 | 0.0 | 0.00 | 0.00 | 0.00 | 59 | 1009.0 |
| 20260901092021 | 57 | 32 | 0.0 | 0.0 | 0.00 | 0.00 | 0.00 | 58 | 1009.0 |
| 20260901091603 | 57 | 32 | 0.0 | 0.0 | 0.00 | 0.00 | 0.00 | 58 | 1009.0 |
| 20260901091104 | 57 | 32 | 0.0 | 0.0 | 0.00 | 0.00 | 0.00 | 56 | 1009.0 |
| 20260901091022 | 58 | 32 | 0.0 | 0.0 | 0.00 | 0.00 | 0.00 | 56 | 1009.0 |
| 20260901090604 | 58 | 32 | 0.0 | 0.0 | 0.00 | 0.00 | 0.00 | 56 | 1009.0 |
| 20260901090103 | 58 | 32 | 0.0 | 0.0 | 0.00 | 0.00 | 0.00 | 56 | 1009.0 |
| 20260901090021 | 58 | 32 | 0.0 | 0.0 | 0.00 | 0.00 | 0.00 | 56 | 1009.0 |
| 20260901085604 | 58 | 32 | 0.0 | 0.0 | 0.00 | 0.00 | 0.00 | 56 | 1009.0 |
| 20260901085104 | 58 | 32 | 0.0 | 0.0 | 0.00 | 0.00 | 0.00 | 55 | 1009.0 |
| 20260901085022 | 58 | 32 | 0.0 | 0.0 | 0.00 | 0.00 | 0.00 | 55 | 1009.1 |
| 20260901084604 | 58 | 32 | 0.0 | 0.0 | 0.00 | 0.00 | 0.00 | 55 | 1009.1 |
| 20260901084104 | 59 | 32 | 0.0 | 0.0 | 0.00 | 0.00 | 0.00 | 56 | 1009.0 |
| 20260901084022 | 59 | 32 | 0.0 | 0.0 | 0.00 | 0.00 | 0.00 | 55 | 1009.1 |
| 20260901083604 | 59 | 32 | 0.0 | 0.0 | 0.00 | 0.00 | 0.00 | 55 | 1009.1 |
| 20260901083104 | 59 | 32 | 0.0 | 0.0 | 0.00 | 0.00 | 0.00 | 55 | 1009.0 |
| 20260901083022 | 59 | 32 | 0.0 | 0.0 | 0.00 | 0.00 | 0.00 | 54 | 1009.1 |
| 20260901082603 | 59 | 32 | 0.0 | 0.0 | 0.00 | 0.00 | 0.00 | 54 | 1009.1 |
| 20260901082104 | 59 | 32 | 0.0 | 0.0 | 0.00 | 0.00 | 0.00 | 53 | 1009.2 |
| 20260901082022 | 60 | 32 | 0.0 | 0.0 | 0.00 | 0.00 | 0.00 | 53 | 1009.2 |
| 20260901081104 | 60 | 32 | 0.0 | 0.0 | 0.00 | 0.00 | 0.00 | 52 | 1009.3 |
| 20260901081022 | 60 | 32 | 0.0 | 0.0 | 0.00 | 0.00 | 0.00 | 51 | 1009.2 |
| 20260901080604 | 60 | 32 | 0.0 | 0.0 | 0.00 | 0.00 | 0.00 | 51 | 1009.2 |
| 20260901080104 | 60 | 32 | 0.0 | 0.0 | 0.00 | 0.00 | 0.00 | 52 | 1009.2 |
| 20260901080022 | 61 | 32 | 0.0 | 0.0 | 0.00 | 0.00 | 0.00 | 51 | 1009.1 |
| 20260901075604 | 61 | 32 | 0.0 | 0.0 | 0.00 | 0.00 | 0.00 | 51 | 1009.1 |
| 20260901075103 | 61 | 32 | 0.0 | 0.0 | 0.00 | 0.00 | 0.00 | 50 | 1009.1 |
| 20260901075022 | 61 | 32 | 0.0 | 0.0 | 0.00 | 0.00 | 0.00 | 50 | 1009.1 |
| 20260901074104 | 61 | 32 | 0.0 | 0.0 | 0.00 | 0.00 | 0.00 | 50 | 1009.0 |
| 20260901074022 | 62 | 32 | 0.0 | 0.0 | 0.00 | 0.00 | 0.00 | 49 | 1009.0 |
| 20260901073604 | 62 | 32 | 0.0 | 0.0 | 0.00 | 0.00 | 0.00 | 49 | 1009.0 |
| 20260901073104 | 62 | 32 | 0.0 | 0.0 | 0.00 | 0.00 | 0.00 | 49 | 1009.0 |
| 20260901072604 | 62 | 32 | 0.0 | 0.0 | 0.00 | 0.00 | 0.00 | 50 | 1009.1 |
| 20260901072104 | 63 | 32 | 0.0 | 0.0 | 0.00 | 0.00 | 0.00 | 48 | 1009.0 |
| 20260901072022 | 63 | 32 | 0.0 | 0.0 | 0.00 | 0.00 | 0.00 | 49 | 1009.0 |
| 20260901071604 | 63 | 32 | 0.0 | 0.0 | 0.00 | 0.00 | 0.00 | 49 | 1009.0 |
| 20260901071104 | 63 | 32 | 0.0 | 0.0 | 0.00 | 0.00 | 0.00 | 47 | 1009.1 |
| 20260901071028 | 64 | 32 | 0.0 | 0.0 | 0.00 | 0.00 | 0.00 | 46 | 1009.0 |
| 20260901070605 | 64 | 32 | 0.0 | 0.0 | 0.00 | 0.00 | 0.00 | 46 | 1009.0 |
| 20260901070104 | 64 | 32 | 0.0 | 0.0 | 0.00 | 0.00 | 0.00 | 47 | 1009.0 |
| 20260901070021 | 64 | 32 | 0.0 | 0.0 | 0.00 | 0.00 | 0.00 | 47 | 1009.0 |
| 20260901065603 | 64 | 32 | 0.0 | 0.0 | 0.00 | 0.00 | 0.00 | 47 | 1009.0 |
| 20260901065104 | 65 | 32 | 0.0 | 0.0 | 0.00 | 0.00 | 0.00 | 45 | 1008.9 |
| 20260901065022 | 65 | 32 | 0.0 | 0.0 | 0.00 | 0.00 | 0.00 | 45 | 1008.9 |
| 20260901064603 | 65 | 32 | 0.0 | 0.0 | 0.00 | 0.00 | 0.00 | 45 | 1008.9 |
| 20260901064104 | 66 | 32 | 0.0 | 0.0 | 0.00 | 0.00 | 0.00 | 43 | 1009.0 |
| 20260901064022 | 66 | 32 | 0.0 | 0.0 | 0.00 | 0.00 | 0.00 | 44 | 1009.0 |
| 20260901063603 | 66 | 32 | 0.0 | 0.0 | 0.00 | 0.00 | 0.00 | 44 | 1009.0 |
| 20260901063104 | 67 | 32 | 0.0 | 0.0 | 0.00 | 0.00 | 0.00 | 43 | 1008.9 |
| 20260901063022 | 67 | 32 | 0.0 | 0.0 | 0.00 | 0.00 | 0.00 | 42 | 1008.8 |
| 20260901062604 | 67 | 32 | 0.0 | 0.0 | 0.00 | 0.00 | 0.00 | 42 | 1008.8 |
| 20260901062104 | 67 | 32 | 0.0 | 0.0 | 0.00 | 0.00 | 0.00 | 41 | 1008.8 |
| 20260901062022 | 67 | 32 | 0.0 | 0.0 | 0.00 | 0.00 | 0.00 | 40 | 1008.8 |
| 20260901061604 | 67 | 32 | 0.0 | 0.0 | 0.00 | 0.00 | 0.00 | 40 | 1008.8 |
| 20260901061104 | 68 | 32 | 0.0 | 0.0 | 0.00 | 0.00 | 0.00 | 39 | 1008.8 |
| 20260901061022 | 68 | 32 | 0.0 | 0.0 | 0.00 | 0.00 | 0.00 | 41 | 1008.7 |
| 20260901060603 | 68 | 32 | 0.0 | 0.0 | 0.00 | 0.00 | 0.00 | 41 | 1008.7 |
| 20260901060104 | 69 | 32 | 0.0 | 0.0 | 0.00 | 0.00 | 0.00 | 39 | 1008.7 |
| 20260901055604 | 69 | 32 | 0.0 | 0.0 | 0.00 | 0.00 | 0.00 | 36 | 1008.7 |
| 20260901055021 | 69 | 31 | 0.0 | 0.0 | 0.00 | 0.00 | 0.00 | 36 | 1008.8 |
| 20260901054104 | 70 | 24 | 0.0 | 0.0 | 0.00 | 0.00 | 0.00 | 38 | 1008.8 |
| 20260901054022 | 70 | 24 | 0.0 | 0.0 | 0.00 | 0.00 | 0.00 | 35 | 1008.7 |
| 20260901053604 | 70 | 24 | 0.0 | 0.0 | 0.00 | 0.00 | 0.00 | 35 | 1008.7 |
| 20260901053104 | 70 | 24 | 0.0 | 0.0 | 0.00 | 0.00 | 0.00 | 34 | 1008.7 |
| 20260901053022 | 70 | 23 | 0.0 | 0.0 | 0.00 | 0.00 | 0.00 | 34 | 1008.8 |
| 20260901052604 | 70 | 23 | 0.0 | 0.0 | 0.00 | 0.00 | 0.00 | 34 | 1008.8 |
| 20260901052103 | 70 | 20 | 0.0 | 0.0 | 0.00 | 0.00 | 0.00 | 34 | 1008.8 |
| 20260901052022 | 71 | 20 | 0.0 | 0.0 | 0.00 | 0.00 | 0.00 | 35 | 1008.7 |
| 20260901051604 | 71 | 20 | 0.0 | 0.0 | 0.00 | 0.00 | 0.00 | 35 | 1008.7 |
| 20260901051104 | 71 | 24 | 0.0 | 0.0 | 0.00 | 0.00 | 0.00 | 32 | 1008.6 |
| 20260901051022 | 71 | 5 | 0.0 | 0.0 | 0.00 | 0.00 | 0.00 | 32 | 1008.6 |
| 20260901050604 | 71 | 5 | 0.0 | 0.0 | 0.00 | 0.00 | 0.00 | 32 | 1008.6 |
| 20260901050104 | 71 | 5 | 0.0 | 0.0 | 0.00 | 0.00 | 0.00 | 31 | 1008.6 |
| 20260901050022 | 71 | 353 | 0.0 | 0.0 | 0.00 | 0.00 | 0.00 | 32 | 1008.5 |
| 20260901045604 | 71 | 353 | 0.0 | 0.0 | 0.00 | 0.00 | 0.00 | 32 | 1008.5 |
| 20260901045022 | 70 | 343 | 0.0 | 0.0 | 0.00 | 0.00 | 0.00 | 31 | 1008.3 |
| 20260901044603 | 70 | 343 | 0.0 | 0.0 | 0.00 | 0.00 | 0.00 | 31 | 1008.3 |
| 20260901044103 | 71 | 334 | 0.0 | 0.0 | 0.00 | 0.00 | 0.00 | 33 | 1008.2 |
| 20260901044022 | 71 | 334 | 0.0 | 0.0 | 0.00 | 0.00 | 0.00 | 34 | 1008.2 |
| 20260901043604 | 71 | 334 | 0.0 | 0.0 | 0.00 | 0.00 | 0.00 | 34 | 1008.2 |
| 20260901043104 | 72 | 334 | 0.0 | 0.0 | 0.00 | 0.00 | 0.00 | 37 | 1008.1 |
| 20260901043021 | 72 | 334 | 0.0 | 0.0 | 0.00 | 0.00 | 0.00 | 35 | 1008.0 |
| 20260901042603 | 72 | 334 | 0.0 | 0.0 | 0.00 | 0.00 | 0.00 | 35 | 1008.0 |
| 20260901042104 | 72 | 334 | 0.0 | 0.0 | 0.00 | 0.00 | 0.00 | 37 | 1007.9 |
| 20260901042022 | 73 | 334 | 0.0 | 0.0 | 0.00 | 0.00 | 0.00 | 35 | 1007.8 |
| 20260901041604 | 73 | 334 | 0.0 | 0.0 | 0.00 | 0.00 | 0.00 | 35 | 1007.8 |
| 20260901041103 | 73 | 334 | 0.0 | 0.0 | 0.00 | 0.00 | 0.00 | 35 | 1007.7 |
| 20260901041022 | 73 | 334 | 0.0 | 0.0 | 0.00 | 0.00 | 0.00 | 32 | 1007.6 |
| 20260901040604 | 73 | 334 | 0.0 | 0.0 | 0.00 | 0.00 | 0.00 | 32 | 1007.6 |
| 20260901035604 | 74 | 334 | 0.0 | 0.0 | 0.00 | 0.00 | 0.00 | 33 | 1007.3 |
| 20260901035104 | 75 | 334 | 0.0 | 0.0 | 0.00 | 0.00 | 0.00 | 31 | 1007.1 |
| 20260901035022 | 75 | 335 | 0.0 | 0.0 | 0.00 | 0.00 | 0.00 | 31 | 1007.0 |
| 20260901034604 | 75 | 335 | 0.0 | 0.0 | 0.00 | 0.00 | 0.00 | 31 | 1007.0 |
| 20260901034103 | 76 | 335 | 0.0 | 0.0 | 0.00 | 0.00 | 0.00 | 30 | 1006.9 |
| 20260901033603 | 76 | 335 | 0.0 | 0.0 | 0.00 | 0.00 | 0.00 | 29 | 1007.0 |
| 20260901033103 | 76 | 335 | 0.0 | 0.0 | 0.00 | 0.00 | 0.00 | 28 | 1006.8 |
| 20260901033022 | 77 | 335 | 0.0 | 0.0 | 0.00 | 0.00 | 0.00 | 27 | 1006.7 |
| 20260901032604 | 77 | 335 | 0.0 | 0.0 | 0.00 | 0.00 | 0.00 | 27 | 1006.7 |
| 20260901032022 | 78 | 335 | 0.0 | 0.0 | 0.00 | 0.00 | 0.00 | 26 | 1006.4 |
| 20260901031604 | 78 | 335 | 0.0 | 0.0 | 0.00 | 0.00 | 0.00 | 26 | 1006.4 |
| 20260901031103 | 78 | 335 | 0.0 | 0.0 | 0.00 | 0.00 | 0.00 | 28 | 1006.3 |
| 20260901031024 | 78 | 335 | 0.0 | 0.0 | 0.00 | 0.00 | 0.00 | 26 | 1006.2 |
| 20260901030603 | 78 | 335 | 0.0 | 0.0 | 0.00 | 0.00 | 0.00 | 26 | 1006.2 |
| 20260901030104 | 79 | 335 | 0.0 | 0.0 | 0.00 | 0.00 | 0.00 | 27 | 1006.1 |
| 20260901030022 | 79 | 16 | 0.0 | 0.0 | 0.00 | 0.00 | 0.00 | 28 | 1006.0 |
| 20260901025603 | 79 | 16 | 0.0 | 0.0 | 0.00 | 0.00 | 0.00 | 28 | 1006.0 |
| 20260901025022 | 80 | 236 | 0.0 | 0.0 | 0.00 | 0.00 | 0.00 | 28 | 1006.0 |
| 20260901024604 | 80 | 236 | 0.0 | 0.0 | 0.00 | 0.00 | 0.00 | 28 | 1006.0 |
| 20260901024104 | 80 | 236 | 0.0 | 0.0 | 0.00 | 0.00 | 0.00 | 28 | 1005.7 |
| 20260901024022 | 81 | 238 | 0.0 | 9.0 | 0.00 | 0.00 | 0.00 | 26 | 1005.6 |
| 20260901023604 | 81 | 238 | 0.0 | 9.0 | 0.00 | 0.00 | 0.00 | 26 | 1005.6 |
| 20260901023104 | 81 | 225 | 0.0 | 3.0 | 0.00 | 0.00 | 0.00 | 26 | 1005.4 |
| 20260901023024 | 82 | 219 | 1.0 | 7.0 | 0.00 | 0.00 | 0.00 | 26 | 1005.2 |
| 20260901022603 | 82 | 219 | 1.0 | 7.0 | 0.00 | 0.00 | 0.00 | 26 | 1005.2 |
| 20260901022104 | 82 | 259 | 0.0 | 3.0 | 0.00 | 0.00 | 0.00 | 26 | 1005.1 |
| 20260901022022 | 83 | 224 | 0.0 | 0.0 | 0.00 | 0.00 | 0.00 | 26 | 1005.0 |
| 20260901021603 | 83 | 224 | 0.0 | 0.0 | 0.00 | 0.00 | 0.00 | 26 | 1005.0 |
| 20260901021104 | 83 | 209 | 0.0 | 0.0 | 0.00 | 0.00 | 0.00 | 27 | 1004.8 |
| 20260901021023 | 84 | 209 | 0.0 | 3.0 | 0.00 | 0.00 | 0.00 | 26 | 1004.7 |
| 20260901020603 | 84 | 209 | 0.0 | 3.0 | 0.00 | 0.00 | 0.00 | 26 | 1004.7 |
| 20260901020104 | 84 | 294 | 0.0 | 3.0 | 0.00 | 0.00 | 0.00 | 26 | 1004.6 |
| 20260901020023 | 84 | 244 | 0.0 | 2.0 | 0.00 | 0.00 | 0.00 | 27 | 1004.6 |
| 20260901015603 | 84 | 244 | 0.0 | 2.0 | 0.00 | 0.00 | 0.00 | 27 | 1004.6 |
| 20260901015023 | 85 | 235 | 0.0 | 2.0 | 0.00 | 0.00 | 0.00 | 27 | 1004.5 |
| 20260901014103 | 85 | 284 | 0.0 | 2.0 | 0.00 | 0.00 | 0.00 | 28 | 1004.4 |
| 20260901014022 | 86 | 269 | 0.0 | 3.0 | 0.00 | 0.00 | 0.00 | 27 | 1004.3 |
| 20260901013604 | 86 | 269 | 0.0 | 3.0 | 0.00 | 0.00 | 0.00 | 27 | 1004.3 |
| 20260901013025 | 86 | 231 | 0.0 | 2.0 | 0.00 | 0.00 | 0.00 | 26 | 1004.3 |
| 20260901012604 | 86 | 231 | 0.0 | 2.0 | 0.00 | 0.00 | 0.00 | 26 | 1004.3 |
| 20260901012103 | 86 | 198 | 0.0 | 5.0 | 0.00 | 0.00 | 0.00 | 27 | 1004.4 |
| 20260901012022 | 86 | 257 | 0.0 | 3.0 | 0.00 | 0.00 | 0.00 | 28 | 1004.2 |
| 20260901011604 | 86 | 257 | 0.0 | 3.0 | 0.00 | 0.00 | 0.00 | 28 | 1004.2 |
| 20260901011103 | 87 | 248 | 1.0 | 5.0 | 0.00 | 0.00 | 0.00 | 27 | 1004.2 |
| 20260901011023 | 87 | 259 | 1.0 | 3.0 | 0.00 | 0.00 | 0.00 | 27 | 1004.1 |
| 20260901010604 | 87 | 259 | 1.0 | 3.0 | 0.00 | 0.00 | 0.00 | 27 | 1004.1 |
| 20260901010104 | 87 | 232 | 1.0 | 5.0 | 0.00 | 0.00 | 0.00 | 26 | 1004.1 |
| 20260901005604 | 87 | 213 | 0.0 | 3.0 | 0.00 | 0.00 | 0.00 | 27 | 1004.1 |
| 20260901005023 | 88 | 252 | 0.0 | 3.0 | 0.00 | 0.00 | 0.00 | 27 | 1004.1 |
| 20260901004604 | 88 | 252 | 0.0 | 3.0 | 0.00 | 0.00 | 0.00 | 27 | 1004.1 |
| 20260901004104 | 88 | 208 | 0.0 | 16.0 | 0.00 | 0.00 | 0.00 | 26 | 1004.1 |
| 20260901004023 | 88 | 233 | 1.0 | 3.0 | 0.00 | 0.00 | 0.00 | 27 | 1004.1 |
| 20260901003604 | 88 | 233 | 1.0 | 3.0 | 0.00 | 0.00 | 0.00 | 27 | 1004.1 |
| 20260901003104 | 88 | 82 | 2.0 | 12.0 | 0.00 | 0.00 | 0.00 | 27 | 1004.1 |